Temperature
21 22 22 22 23 23 23 23 23 23 23 23 23 23 24 23 23 23 23 23 22 22 21 20 20 19 19 19 18 18 17 17 16 16 15 15 15 14 14 14 14 13 13 13
22 22 22 22 22 22 23 23 23 23 23 23 24 24 24 24 23 23 23 23 23 22 21 20 20 19 19 19 18 18 17 17 16 16 15 15 15 14 14 14 13 13 13 13
22 22 22 22 22 22 23 23 23 23 23 23 24 24 24 24 23 23 23 23 23 22 22 21 20 19 19 19 18 18 17 17 16 16 15 15 14 14 14 14 13 13 13 13
22 22 22 22 22 23 22 22 23 23 23 23 24 24 25 25 24 24 23 23 22 22 21 21 20 19 19 19 19 18 17 17 16 16 15 15 15 14 14 14 13 13 13 13
22 22 22 22 22 22 22 22 22 23 24 24 24 25 25 25 25 25 24 23 22 22 21 21 20 20 19 19 19 18 17 17 16 16 16 15 14 14 14 14 14 13 13 13
22 22 23 23 22 22 22 22 23 23 24 24 24 25 24 25 25 24 24 23 22 22 21 21 20 20 19 19 19 18 18 17 17 16 16 15 15 14 14 14 14 14 13 13
22 22 22 22 22 22 23 23 23 23 23 23 24 24 24 24 24 24 24 23 22 21 21 20 20 20 20 19 19 18 18 17 17 16 16 15 15 14 14 14 14 14 14 13
23 22 22 23 23 23 23 24 23 23 23 24 24 24 25 24 23 22 22 22 21 21 20 20 20 20 19 19 19 18 18 17 17 16 16 15 15 14 14 14 14 14 14 14
23 23 23 23 23 24 24 24 24 25 24 24 24 24 25 24 24 23 23 22 21 21 20 20 20 19 19 19 19 19 18 18 17 17 16 15 15 15 15 14 14 14 14 13
24 23 23 23 23 22 24 24 24 25 24 23 23 24 24 24 24 24 23 22 22 21 20 20 20 19 19 19 19 18 18 18 17 17 16 16 15 15 15 14 14 14 14 14
24 24 23 23 24 24 24 24 24 24 24 24 23 23 24 23 23 23 23 22 21 21 20 20 19 19 19 19 19 19 18 18 17 17 16 16 16 15 15 15 14 14 14 14
23 25 24 24 23 23 24 24 25 24 24 24 24 23 23 23 23 22 22 21 21 20 20 19 19 19 19 19 19 18 18 18 17 17 16 16 16 15 15 15 14 14 14 14
23 24 24 23 23 24 24 23 23 24 24 24 24 23 23 23 22 22 21 21 20 20 19 19 19 19 19 19 19 18 18 18 17 17 17 16 16 15 15 15 15 14 14 14
22 24 24 23 24 24 23 23 23 24 24 24 24 23 23 23 22 21 20 20 20 19 19 19 19 19 19 19 18 18 18 18 18 17 17 16 16 16 15 15 15 14 14 14
24 24 24 23 23 23 23 23 23 23 24 24 23 23 23 22 22 21 20 19 19 19 18 18 18 18 18 18 18 18 18 18 18 17 17 17 16 16 16 15 15 15 14 14
23 24 24 23 23 23 23 22 22 22 23 23 23 22 22 21 21 21 20 19 19 18 18 18 18 18 18 18 18 18 18 18 18 17 17 17 16 16 16 15 15 15 14 14
23 24 23 23 23 23 23 22 22 22 22 22 22 22 21 21 20 20 19 19 18 18 17 17 18 18 18 18 18 18 17 17 17 17 17 17 16 16 16 16 15 15 14 14
22 23 23 23 23 22 22 22 22 21 21 21 21 21 21 20 19 18 18 18 18 17 17 17 17 17 17 17 17 17 17 17 17 17 16 16 16 16 16 16 15 15 14 14
21 22 23 23 23 22 21 21 21 21 21 21 21 20 20 19 20 19 17 17 17 17 17 17 17 17 17 17 17 17 17 17 16 16 16 16 16 16 16 16 15 15 14 14
19 21 22 22 22 22 22 21 20 21 21 20 20 20 19 20 21 20 17 16 16 16 16 16 16 16 16 16 16 16 16 16 16 16 16 16 16 16 16 16 15 15 15 14
20 21 21 22 22 22 20 19 19 21 21 19 19 19 19 19 19 17 16 16 16 16 16 16 16 16 16 16 16 16 15 15 15 15 15 15 15 15 15 15 15 15 14 14
21 21 21 21 21 21 19 19 20 20 18 18 18 17 17 17 16 16 16 15 15 15 15 15 15 15 15 15 15 15 15 15 15 15 15 15 15 15 15 15 15 15 14 14
20 20 21 21 20 18 17 18 17 17 17 17 16 16 16 16 15 15 15 15 15 15 15 15 15 15 15 14 14 14 14 14 14 14 14 15 14 14 14 14 15 14 14 14
18 17 18 19 18 17 16 16 15 16 16 15 15 15 15 15 15 15 14 15 14 14 14 14 14 14 14 14 14 14 14 14 14 14 14 14 14 14 14 14 14 14 14 14
17 17 18 18 18 16 15 15 15 15 15 15 14 14 14 14 14 14 14 14 14 14 13 13 13 13 13 13 13 13 13 13 13 13 13 13 13 13 13 13 13 13 13 13
16 17 18 18 17 17 16 14 14 14 14 14 14 14 13 13 13 13 13 13 13 13 13 13 13 12 12 12 12 12 12 12 12 12 12 12 12 12 12 12 13 13 13 13
Wind_Speed
6 7 7 7 4 1 2 3 3 3 2 3 3 4 4 5 6 7 8 9 9 8 8 7 7 8 8 8 7 6 5 5 3 2 2 1 1 1 1 2 3 3 4 4
7 6 4 4 3 2 2 4 5 4 2 2 2 2 3 4 6 7 8 8 8 7 8 8 8 8 8 8 8 7 6 5 4 2 1 1 1 1 1 1 2 3 4 4
4 4 5 6 5 4 2 2 3 2 2 3 2 3 4 4 5 6 7 7 7 7 8 8 9 9 8 8 8 7 7 6 5 4 2 1 1 1 1 1 2 3 3 4
2 3 6 6 4 3 2 1 1 2 4 3 1 4 5 4 4 5 6 7 7 7 7 8 8 9 9 8 8 8 8 7 6 5 3 2 2 2 2 2 2 2 2 3
4 4 6 5 2 2 2 2 1 2 3 4 1 2 6 4 3 3 4 5 6 6 7 7 8 8 8 8 8 8 8 7 6 5 4 3 3 2 2 2 2 2 2 2
4 2 1 2 3 2 4 4 3 3 4 4 2 1 5 4 3 2 2 3 4 5 6 6 7 7 7 7 8 8 8 7 6 6 5 4 3 3 2 2 2 2 2 2
6 5 3 2 4 4 4 4 4 5 4 4 2 1 4 5 4 3 2 2 2 3 5 5 7 8 8 9 8 8 8 7 7 6 6 5 4 4 4 3 3 3 2 2
6 6 4 3 2 2 3 3 1 3 4 5 3 3 5 5 4 3 2 3 3 3 3 4 5 7 7 8 9 9 9 8 7 6 6 5 5 4 3 3 4 3 3 3
4 5 4 2 1 1 2 1 2 2 4 4 5 4 5 5 5 5 5 4 3 2 2 2 3 5 6 7 8 9 9 8 7 7 6 6 5 5 4 4 4 3 3 3
2 6 4 3 3 2 2 1 2 2 3 4 5 4 3 4 4 4 4 4 3 2 2 2 2 4 5 6 6 7 7 8 7 7 6 5 6 5 5 5 4 4 4 3
2 4 5 5 2 2 3 2 1 1 0 1 4 4 4 3 4 3 3 3 3 2 2 1 1 1 3 4 5 6 6 7 7 7 7 6 6 5 5 5 5 5 4 4
1 2 5 4 3 2 1 1 1 1 3 1 2 4 5 3 4 4 3 3 3 3 2 2 2 1 2 3 4 6 6 6 7 7 7 6 6 5 6 6 5 5 5 4
1 3 5 6 5 3 2 1 0 1 2 2 2 4 5 4 5 5 4 4 4 4 4 3 2 1 1 1 3 4 5 6 6 6 6 6 6 6 6 6 5 5 5 5
2 2 2 2 3 3 3 2 2 3 2 2 1 3 4 5 5 5 5 5 5 5 4 4 3 2 1 1 2 3 4 5 5 6 6 7 7 6 6 6 6 6 6 6
2 2 2 2 2 2 1 2 3 3 2 2 2 2 3 4 4 4 5 5 5 6 6 5 4 4 2 1 1 2 3 4 5 6 6 7 7 6 7 7 7 6 6 6
1 2 3 3 2 3 1 1 3 2 2 2 2 1 3 3 4 5 6 6 6 6 6 6 5 5 4 3 2 2 3 3 4 5 6 5 6 6 7 7 7 7 6 7
1 3 4 4 3 4 3 2 3 3 2 3 2 0 2 3 5 5 6 6 6 6 6 6 6 5 5 4 3 2 2 3 4 5 4 5 5 6 7 7 8 8 8 7
3 4 3 3 5 5 2 4 3 4 3 2 2 3 2 3 5 6 7 7 7 7 7 6 6 6 6 5 4 3 2 2 3 4 4 4 5 6 6 7 8 8 8 8
4 4 4 5 5 3 3 3 3 4 3 2 1 2 3 3 5 5 7 7 7 7 6 6 6 6 5 5 5 3 2 2 3 4 5 5 5 5 6 7 8 8 8 8
3 4 5 5 6 4 3 3 1 4 4 2 1 2 2 1 1 3 6 6 6 7 6 6 6 6 5 5 5 4 3 3 4 5 6 5 6 6 7 7 7 7 8 9
6 5 7 7 6 2 3 1 4 6 2 3 2 2 2 1 3 4 5 5 6 6 6 6 6 6 6 6 5 5 5 5 6 6 6 6 6 7 7 7 7 7 8 8
5 6 6 6 7 3 4 3 3 3 5 3 3 2 2 2 3 4 4 5 6 6 6 7 6 6 6 6 5 6 6 6 6 6 6 6 6 6 6 7 6 7 8 9
3 2 2 2 1 5 3 3 3 2 2 2 2 2 1 1 3 4 4 5 6 6 6 6 7 7 6 6 6 7 7 7 7 7 7 7 7 7 7 7 7 7 7 8
3 1 2 2 3 3 2 3 2 2 2 1 1 1 2 2 3 4 5 5 6 7 7 7 7 7 7 7 7 7 8 7 8 8 7 7 7 7 7 7 7 7 7 8
2 3 3 3 3 3 3 2 2 2 2 2 2 2 2 3 4 5 5 6 7 7 7 7 7 8 8 8 8 8 8 8 9 9 8 7 7 7 7 7 7 9 9 9
3 4 4 3 3 2 2 1 1 1 1 2 2 3 3 3 4 5 6 6 6 7 7 7 8 9 9 9 9 8 8 8 9 9 8 7 7 7 7 8 8 8 10 10
Wind_Direction
176 188 183 175 181 40 163 167 147 124 146 213 219 213 205 190 196 197 193 191 193 196 189 184 186 189 190 189 191 186 181 170 170 174 196 207 226 290 332 354 357 346 343 342
175 184 163 153 169 181 171 157 135 128 143 225 234 220 198 196 204 207 204 200 199 195 190 184 186 189 192 189 189 186 184 176 179 180 197 233 298 288 326 323 335 342 343 341
173 124 156 176 180 184 182 173 145 142 171 204 238 164 154 162 187 196 209 209 207 203 203 193 191 194 193 191 187 186 184 177 176 174 171 172 195 252 258 299 322 333 331 336
141 140 172 179 178 199 155 127 193 199 197 149 238 129 123 138 166 187 198 201 206 204 205 196 193 195 195 192 185 187 184 181 177 181 194 216 257 292 309 307 317 314 318 328
126 156 169 167 155 190 100 126 192 197 185 152 133 129 103 107 128 158 186 196 201 201 203 196 195 195 192 185 182 186 184 185 185 193 196 225 253 288 300 297 309 309 326 323
111 145 172 122 102 139 142 150 144 176 190 138 84 111 94 75 48 61 110 163 189 193 193 194 189 185 185 180 180 184 186 188 191 199 206 223 246 268 284 289 301 299 310 315
135 135 131 154 149 163 209 199 169 166 158 116 88 99 78 49 21 13 45 105 139 170 182 188 188 185 185 184 184 186 189 191 193 203 214 226 236 252 265 281 284 294 306 311
143 136 150 190 222 182 198 256 221 145 137 124 137 106 80 45 31 41 71 96 107 137 167 184 191 188 189 190 190 192 195 197 196 205 217 230 232 244 262 268 282 287 298 312
139 118 119 143 227 258 166 136 354 103 122 128 118 116 99 61 64 69 77 86 96 113 140 164 180 186 190 193 195 198 199 200 201 208 216 227 236 238 252 259 267 276 284 298
123 130 136 149 163 63 2 134 197 187 144 128 123 107 78 54 49 53 59 66 75 83 103 130 165 185 191 193 193 197 204 206 208 211 216 222 230 231 241 253 257 265 278 285
238 156 147 169 179 128 146 151 135 108 12 154 136 102 47 49 40 36 44 54 58 57 66 88 124 164 182 187 189 194 203 209 210 213 217 221 226 228 233 243 249 256 264 269
275 194 143 130 90 1 352 29 244 168 119 96 126 99 67 45 37 34 42 44 41 38 42 60 80 110 165 191 199 202 206 210 213 215 219 224 227 225 232 239 245 249 255 260
199 205 161 153 156 151 127 83 38 70 149 171 172 112 77 59 48 41 42 43 46 48 50 57 68 80 125 198 212 215 216 217 214 212 218 223 226 227 231 238 241 246 248 250
258 219 238 179 105 134 144 141 187 223 211 181 164 110 74 45 41 43 43 47 52 48 45 42 38 37 24 256 232 230 226 220 217 215 219 225 229 229 233 236 237 242 244 247
261 192 142 90 89 132 133 166 187 222 261 248 150 126 50 30 33 43 47 48 48 43 36 28 25 18 8 333 282 255 240 221 216 218 224 229 232 230 235 238 238 238 242 248
288 187 169 164 143 153 139 178 186 202 221 201 173 154 35 42 52 53 49 44 38 30 24 18 15 11 3 352 318 278 255 237 222 225 233 236 240 234 234 237 240 237 237 242
205 210 216 203 171 203 228 221 185 155 154 186 197 73 52 85 65 52 45 39 29 19 14 10 6 1 354 349 337 306 268 237 228 231 234 238 243 239 238 238 236 235 234 237
227 213 223 217 203 225 94 91 133 131 107 104 78 69 75 93 97 68 43 32 27 17 10 6 359 355 349 349 344 329 300 252 242 245 245 245 251 248 245 242 238 237 239 236
234 216 214 221 220 205 163 150 174 179 134 91 100 83 85 115 136 79 36 22 17 13 9 3 355 353 351 350 344 334 320 290 266 262 261 257 251 250 247 242 241 239 239 238
182 220 221 213 221 227 142 116 205 203 174 109 102 84 80 138 206 40 20 14 14 13 10 4 358 -0 359 352 342 333 327 314 294 280 271 265 256 250 247 246 246 244 241 240
175 192 215 222 229 221 78 104 185 207 136 101 99 87 81 48 22 21 10 12 11 9 6 0 357 356 350 344 335 326 327 319 311 299 283 272 261 255 253 250 247 244 241 242
198 194 203 213 224 205 92 146 178 76 83 93 77 66 67 39 25 13 6 4 2 360 360 355 349 346 344 340 328 321 322 319 313 304 291 279 269 263 255 249 247 245 240 240
213 238 213 218 95 87 88 84 63 86 100 80 59 37 17 351 349 350 349 349 350 348 347 344 338 334 338 337 325 317 320 317 309 300 291 285 278 266 258 251 247 245 240 241
163 176 194 185 150 121 101 93 86 78 70 44 21 359 345 328 332 334 334 335 338 340 337 333 330 329 331 332 325 318 318 314 306 299 295 290 284 275 263 255 252 248 245 242
175 185 203 212 177 162 135 102 67 58 48 32 20 351 328 321 321 324 325 329 330 331 331 326 321 320 321 324 321 322 319 311 304 301 298 296 289 283 274 262 257 254 251 249
202 213 221 224 174 194 173 87 37 36 8 348 335 332 329 319 317 318 319 322 323 323 324 321 319 318 318 318 317 318 317 309 304 303 303 298 293 286 279 274 268 257 258 258
Height
1497 1496 1496 1494 1494 1495 1494 1496 1498 1498 1498 1499 1498 1498 1498 1500 1503 1504 1506 1508 1510 1513 1516 1517 1519 1520 1522 1523 1525 1526 1526 1526 1526 1526 1526 1526 1526 1526 1525 1524 1522 1521 1519 1518
1496 1495 1494 1495 1496 1496 1496 1497 1498 1498 1498 1498 1497 1496 1495 1498 1500 1502 1503 1505 1508 1511 1514 1516 1517 1519 1520 1522 1523 1524 1524 1525 1525 1525 1526 1525 1525 1525 1524 1523 1521 1520 1519 1517
1492 1494 1495 1496 1497 1497 1497 1497 1498 1499 1499 1497 1496 1496 1494 1496 1499 1501 1503 1504 1506 1509 1511 1514 1515 1517 1518 1520 1521 1522 1523 1524 1524 1524 1525 1524 1524 1524 1524 1523 1521 1520 1518 1517
1492 1495 1495 1496 1496 1496 1499 1497 1497 1498 1498 1499 1496 1502 1494 1493 1495 1498 1500 1503 1505 1507 1510 1511 1513 1515 1516 1518 1519 1521 1522 1523 1523 1524 1524 1524 1524 1524 1524 1522 1521 1519 1518 1516
1494 1495 1495 1496 1496 1496 1498 1498 1497 1496 1496 1496 1495 1496 1495 1492 1495 1496 1498 1501 1503 1506 1508 1510 1511 1513 1515 1516 1518 1519 1521 1522 1522 1523 1523 1523 1524 1524 1523 1522 1520 1519 1518 1516
1494 1496 1495 1495 1497 1497 1498 1498 1497 1495 1493 1503 1500 1498 1502 1494 1495 1495 1497 1500 1502 1504 1506 1508 1510 1511 1513 1515 1516 1518 1519 1520 1521 1522 1522 1523 1523 1522 1522 1521 1520 1519 1518 1516
1496 1495 1496 1497 1498 1499 1497 1497 1504 1505 1505 1506 1500 1500 1502 1496 1497 1498 1498 1500 1501 1503 1505 1506 1508 1509 1511 1513 1514 1516 1518 1519 1520 1521 1521 1522 1521 1521 1521 1520 1519 1518 1518 1516
1496 1500 1496 1495 1494 1494 1494 1494 1502 1510 1509 1504 1501 1501 1499 1497 1499 1499 1500 1501 1502 1503 1504 1505 1507 1508 1509 1511 1513 1514 1516 1517 1518 1519 1520 1520 1521 1520 1520 1519 1519 1518 1517 1516
1492 1497 1495 1496 1495 1493 1494 1493 1492 1493 1498 1502 1501 1499 1496 1497 1498 1499 1500 1501 1502 1503 1504 1505 1506 1507 1508 1510 1511 1513 1514 1515 1516 1517 1518 1519 1519 1519 1519 1518 1518 1517 1516 1515
1488 1495 1495 1496 1495 1497 1493 1492 1493 1495 1506 1511 1509 1505 1503 1500 1499 1499 1500 1501 1503 1504 1504 1505 1505 1506 1507 1508 1510 1511 1512 1514 1515 1516 1516 1517 1517 1517 1517 1517 1516 1516 1515 1514
1488 1491 1496 1494 1493 1493 1495 1495 1494 1495 1496 1505 1513 1511 1501 1501 1501 1501 1501 1503 1504 1504 1504 1504 1505 1505 1506 1507 1508 1509 1511 1512 1513 1513 1514 1515 1515 1515 1515 1515 1515 1514 1514 1513
1490 1487 1492 1494 1494 1494 1492 1492 1492 1497 1501 1499 1503 1511 1502 1502 1503 1503 1503 1504 1504 1504 1504 1504 1504 1504 1505 1506 1507 1508 1509 1510 1510 1511 1512 1513 1513 1513 1513 1513 1513 1512 1512 1512
1490 1489 1496 1500 1500 1496 1494 1496 1495 1493 1495 1499 1504 1510 1502 1503 1504 1504 1504 1505 1505 1504 1504 1504 1503 1503 1504 1504 1505 1506 1507 1508 1508 1509 1509 1510 1511 1511 1511 1511 1510 1510 1510 1510
1493 1488 1492 1500 1496 1494 1496 1498 1497 1495 1497 1501 1502 1504 1502 1503 1504 1505 1505 1505 1505 1505 1504 1504 1503 1503 1503 1503 1504 1504 1505 1505 1506 1506 1507 1507 1508 1508 1508 1508 1508 1508 1508 1508
1491 1489 1490 1493 1494 1495 1497 1498 1498 1497 1496 1498 1501 1503 1503 1504 1505 1506 1506 1506 1505 1505 1505 1504 1504 1503 1503 1503 1502 1503 1503 1503 1504 1504 1505 1505 1506 1506 1506 1506 1506 1506 1506 1505
1491 1490 1492 1495 1496 1496 1498 1498 1498 1500 1499 1499 1501 1504 1504 1506 1506 1506 1507 1507 1506 1506 1505 1505 1504 1503 1502 1502 1501 1501 1501 1501 1502 1502 1502 1503 1503 1503 1503 1503 1503 1503 1503 1503
1491 1490 1493 1494 1496 1496 1500 1498 1499 1500 1500 1500 1502 1504 1505 1506 1507 1508 1508 1507 1507 1507 1506 1505 1504 1503 1502 1501 1500 1500 1499 1499 1499 1500 1500 1500 1500 1500 1500 1500 1500 1500 1500 1500
1493 1492 1492 1494 1498 1507 1500 1498 1499 1501 1502 1502 1503 1505 1506 1507 1508 1509 1509 1508 1508 1507 1505 1504 1504 1503 1502 1501 1499 1499 1498 1498 1497 1497 1497 1497 1497 1497 1497 1497 1496 1496 1497 1497
1495 1494 1493 1494 1497 1499 1500 1499 1500 1500 1504 1504 1504 1505 1506 1507 1507 1508 1509 1509 1508 1507 1506 1504 1503 1502 1501 1499 1498 1497 1497 1496 1495 1495 1495 1494 1494 1493 1493 1493 1493 1493 1493 1493
1497 1495 1493 1495 1499 1501 1497 1498 1501 1502 1504 1505 1505 1506 1506 1506 1504 1508 1510 1508 1508 1506 1505 1504 1502 1501 1500 1498 1497 1496 1495 1494 1493 1492 1492 1491 1490 1490 1489 1489 1489 1489 1489 1489
1494 1495 1494 1494 1495 1492 1498 1500 1501 1504 1502 1505 1506 1506 1507 1507 1508 1510 1509 1508 1507 1506 1504 1503 1502 1500 1498 1497 1495 1494 1493 1492 1490 1489 1488 1487 1487 1486 1486 1485 1485 1485 1484 1484
1488 1491 1493 1493 1496 1498 1500 1499 1500 1502 1504 1506 1507 1507 1508 1508 1509 1508 1508 1507 1506 1504 1503 1502 1500 1499 1497 1495 1493 1492 1490 1489 1487 1486 1485 1484 1483 1482 1481 1481 1480 1480 1480 1479
1491 1490 1489 1491 1496 1500 1501 1501 1503 1504 1505 1506 1507 1508 1508 1508 1508 1507 1506 1505 1504 1503 1502 1500 1498 1497 1495 1493 1491 1489 1487 1485 1484 1482 1481 1480 1479 1478 1477 1476 1475 1475 1474 1474
1493 1496 1494 1495 1497 1500 1502 1503 1504 1505 1505 1506 1507 1507 1507 1507 1506 1505 1505 1503 1502 1501 1499 1497 1496 1494 1492 1490 1488 1486 1484 1482 1480 1479 1477 1476 1474 1473 1472 1471 1470 1470 1469 1469
1494 1495 1493 1494 1497 1500 1502 1503 1504 1504 1505 1505 1505 1505 1505 1505 1504 1503 1502 1501 1500 1498 1496 1495 1493 1491 1489 1487 1485 1483 1481 1479 1477 1475 1473 1471 1470 1468 1466 1465 1464 1464 1463 1463
1494 1494 1493 1492 1496 1498 1501 1502 1503 1503 1504 1504 1504 1503 1503 1503 1502 1501 1500 1499 1497 1495 1494 1492 1490 1488 1486 1484 1482 1479 1477 1475 1473 1471 1469 1467 1465 1463 1461 1460 1458 1457 1457 1456